This is the latest recevied weather packets stored in our database for station/object R1CBW-13. If no packets are shown the sender has not sent any weather packets the latest 1 day(s).
| Time | Temp. | Humidity | Pressure | Rain* | Wind** | Luminosity | Snow |
|---|---|---|---|---|---|---|---|
| 1778077596 | 9.44° C | 29% | 1012.8 hPa | 0 mm | - | - | - |
| 1778077476 | 9.44° C | 29% | 1012.8 hPa | 0 mm | - | - | - |
| 1778077356 | 8.89° C | 30% | 1012.8 hPa | 0 mm | - | - | - |
| 1778077296 | 9.44° C | 29% | 1012.9 hPa | 0 mm | - | - | - |
| 1778077236 | 9.44° C | 28% | 1012.9 hPa | 0 mm | - | - | - |
| 1778077056 | 8.89° C | 28% | 1012.8 hPa | 0 mm | - | - | - |
| 1778076996 | 8.89° C | 28% | 1012.9 hPa | 0 mm | - | - | - |
| 1778074775 | 10.56° C | 29% | 1012.8 hPa | 0 mm | - | - | - |
| 1778074655 | 10° C | 29% | 1012.7 hPa | 0 mm | - | - | - |
| 1778074595 | 9.44° C | 30% | 1012.7 hPa | 0 mm | - | - | - |
| 1778074475 | 9.44° C | 29% | 1012.7 hPa | 0 mm | - | - | - |
| 1778074415 | 10° C | 27% | 1012.8 hPa | 0 mm | - | - | - |
| 1778074355 | 11.11° C | 26% | 1012.7 hPa | 0 mm | - | - | - |
| 1778074295 | 11.67° C | 25% | 1012.7 hPa | 0 mm | - | - | - |
| 1778074235 | 11.67° C | 24% | 1012.7 hPa | 0 mm | - | - | - |
| 1778074175 | 11.11° C | 24% | 1012.6 hPa | 0 mm | - | - | - |
| 1778074115 | 10.56° C | 25% | 1012.7 hPa | 0 mm | - | - | - |
| 1778074055 | 10° C | 25% | 1012.7 hPa | 0 mm | - | - | - |
| 1778073995 | 10° C | 24% | 1012.7 hPa | 0 mm | - | - | - |
| 1778073935 | 9.44° C | 25% | 1012.8 hPa | 0 mm | - | - | - |
| 1778073875 | 10.56° C | 23% | 1012.8 hPa | 0 mm | - | - | - |
| 1778073755 | 10.56° C | 23% | 1012.6 hPa | 0 mm | - | - | - |
| 1778072975 | 8.89° C | 20% | 1012.7 hPa | 0 mm | - | - | - |
| 1778071474 | 9.44° C | 21% | 1012.7 hPa | 0 mm | - | - | - |
| 1778071294 | 10.56° C | 23% | 1012.6 hPa | 0 mm | - | - | - |
* Rain latest hour (hover to see other rain measurements)
** Current wind speed in m/s (hover to see current wind gust speed)